Location: Bannatyne
(13.0833°N, 59.5333°W)
Time: 05:09:08
(UTC+00:00)

Vanguard 3 - Pass Details

Date: 31 January 2020
Orbit: 508 x 3263 km, 33.3° (Epoch: 25 February)

Event Time Altitude Azimuth Distance (km) Brightness Sun altitude
Rises 03:14:52 0° 300° (WNW) 6,620 11.9 -75.6°
Enters shadow 03:19:38 - 298° (WNW) 5,314 11.3 -76.7°
Reaches altitude 10° 03:19:53 10° 298° (WNW) 5,244 - -76.8°
Maximum altitude 03:33:46 67° 219° (SW) 1,762 - -79.9°
Drops below altitude 10° 03:41:22 10° 137° (SE) 3,002 - -81.5°
Sets 03:43:31 0° 134° (SE) 3,704 - -81.9°
